User: anonymous   Login
Location: Abraham Lincoln Continuation High School
(33.9711°N, 117.3662°W)
Time: 15:38:52
(UTC+00:00)
Language:

HJ-1C - Orbit

View from above orbital plane
View from above orbital plane
View from above satellite
View from above satellite

Ground track
Ground track

The orbit data is extracted from the following two-line orbital elements,

1 38997U 12064A   20340.02417236  .00005234  00000-0  11995-3 0  9995
2 38997  97.1386   6.8909 0011382 103.3523 341.2446 15.43122118452087
Epoch (UTC): 05 December 2020 00:34:48
Eccentricity: 0.0011382
inclination: 97.1386°
perigee height: 429 km
apogee height: 444 km
right ascension of ascending node: 6.8909°
argument of perigee: 103.3523°
revolutions per day: 15.43122118
mean anomaly at epoch: 341.2446°
orbit number at epoch: 45208

The dashed part of the orbit path shows where the satellite is in the earth's shadow,  

DLR